Location: Acequia del Cap
(41.7000°N, 0.6167°E)
Time: 17:05:55
(UTC+00:00)

Cosmos 1898 Rocket - Pass Details

Date: 07 August 2020
Orbit: 754 x 783 km, 74.0° (Epoch: 23 September)

Event Time Altitude Azimuth Distance (km) Brightness Sun altitude
Exits shadow 02:11:47 39° 141° (SE) 1,136 4.2 -24.8°
Maximum altitude 02:13:00 46° 103° (ESE) 1,019 4.2 -24.7°
Drops below altitude 10° 02:17:58 10° 32° (NNE) 2,304 7.1 -24.2°
Sets 02:20:25 0° 26° (NNE) 3,230 8.1 -23.9°
